Location: Maiden
(35.5760°N, 81.2120°W)
Time: 05:35:15
(UTC-04:00)

ISS - Visible Passes

Search period start: 02 July 2020 00:00
Search period end: 12 July 2020 00:00
Orbit: 417 x 420 km, 51.6° (Epoch: 02 July)

Date Brightness Start Highest point End Pass type
(mag) Time Alt. Az. Time Alt. Az. Time Alt. Az.
02 Jul -2.3 03:34:18 36° NNE 03:34:18 36° NNE 03:36:35 10° NE visible
02 Jul -0.8 05:10:12 10° NNW 05:10:40 10° NNW 05:11:09 10° NNW visible
03 Jul -0.8 02:48:03 15° NE 02:48:03 15° NE 02:48:45 10° NE visible
03 Jul -1.1 04:20:59 11° NW 04:22:33 14° NNW 04:24:26 10° N visible
04 Jul -1.5 03:34:41 20° NNW 03:34:41 20° NNW 03:37:04 10° NNE visible
05 Jul -0.9 02:48:20 18° NNE 02:48:20 18° NNE 02:49:29 10° NNE visible
06 Jul -0.7 03:35:12 10° NNW 03:35:51 10° NNW 03:36:30 10° N visible
07 Jul -0.7 02:48:25 14° NNW 02:48:25 14° NNW 02:49:37 10° N visible
08 Jul -0.3 02:01:54 11° NNE 02:01:54 11° NNE 02:02:11 10° NNE visible
10 Jul -0.2 02:01:33 10° N 02:01:33 10° N 02:01:38 10° N visible
